1520784000.94,17710,13.38,72746.0,-0.11,-28.59,-28.63,0,*69
1520784002.19,17711,13.38,72740.8,-0.11,-28.75,-28.63,0,*66
1520784003.45,17712,13.38,72746.3,-0.11,-28.59,-28.63,0,*6B
1520784004.67,17713,13.38,72746.0,-0.11,-28.53,-28.59,0,*69
1520784005.93,17714,13.38,72748.5,-0.11,-28.59,-28.59,0,*64
1520784007.18,17715,13.38,72750.8,-0.11,-28.59,-28.63,0,*6C
1520784008.44,17716,13.38,72750.8,-0.11,-28.59,-28.63,0,*6F
1520784009.68,17717,13.38,72750.5,-0.11,-28.59,-28.75,0,*69
1520784010.93,17718,13.38,72752.3,-0.13,-28.59,-28.69,0,*69
1520784012.21,17719,13.38,72752.0,-0.13,-28.47,-28.63,0,*6D
1520784013.46,17720,13.38,72752.3,-0.13,-28.47,-28.69,0,*6D
1520784014.74,17721,13.38,72748.0,-0.13,-28.47,-28.63,0,*66
1520784015.99,17722,13.38,72750.0,-0.15,-28.43,-28.63,0,*67
1520784017.24,17723,13.38,72752.5,-0.13,-28.47,-28.69,0,*6E
1520784018.49,17724,13.38,72756.8,-0.13,-28.47,-28.69,0,*69
1520784019.77,17725,13.38,72750.0,-0.13,-28.43,-28.63,0,*66
1520784021.05,17726,13.38,72758.3,-0.13,-28.47,-28.63,0,*61
1520784022.27,17727,13.38,72748.3,-0.15,-28.31,-28.59,0,*6E
1520784023.53,17728,13.38,72752.3,-0.13,-28.31,-28.47,0,*68
1520784024.75,17729,13.38,72754.0,-0.15,-28.31,-28.59,0,*60
1520784026.03,17730,13.38,72756.8,-0.13,-28.43,-28.63,0,*62
1520784027.28,17731,13.38,72758.0,-0.13,-28.47,-28.69,0,*6D
1520784028.56,17732,13.38,72758.0,-0.13,-28.47,-28.63,0,*64
1520784029.78,17733,13.38,72762.0,-0.15,-28.47,-28.69,0,*69
1520784031.01,17734,13.38,72762.0,-0.15,-28.63,-28.69,0,*68
1520784032.23,17735,13.38,72762.3,-0.15,-28.69,-28.79,0,*62
1520784033.46,17736,13.38,72760.8,-0.15,-28.79,-28.85,0,*63
1520784034.71,17737,13.38,72756.0,-0.15,-28.79,-28.79,0,*61
1520784035.94,17738,13.38,72760.3,-0.13,-28.69,-28.85,0,*6A
1520784037.16,17739,13.38,72762.3,-0.15,-28.69,-28.79,0,*6E
1520784038.44,17740,13.38,72760.0,-0.17,-28.75,-28.91,0,*69
1520784039.7,17741,13.38,72760.0,-0.17,-28.85,-28.91,0,*67
1520784040.96,17742,13.38,72760.3,-0.17,-28.75,-28.85,0,*6E
1520784042.25,17743,13.38,72762.8,-0.17,-28.75,-28.91,0,*6A
1520784043.5,17744,13.38,72758.5,-0.17,-28.75,-28.85,0,*68
1520784044.78,17745,13.38,72760.8,-0.17,-28.75,-28.91,0,*6C
1520784046.03,17746,13.38,72762.8,-0.21,-28.75,-28.91,0,*6A
1520784047.26,17747,13.38,72764.0,-0.21,-28.63,-28.85,0,*69
1520784048.48,17748,13.38,72760.8,-0.21,-28.75,-28.85,0,*61
1520784049.73,17749,13.38,72762.0,-0.21,-28.75,-28.91,0,*65
1520784050.93,17750,13.38,72760.0,-0.21,-28.85,-28.85,0,*67
1520784052.16,17751,13.38,72762.0,-0.21,-28.75,-28.85,0,*69
1520784053.4,17752,13.38,72762.8,-0.23,-28.79,-28.97,0,*67
1520784054.65,17753,13.38,72764.3,-0.23,-28.75,-28.97,0,*6A
1520784055.89,17754,13.38,72760.8,-0.23,-28.79,-28.97,0,*61
1520784057.17,17755,13.38,72758.5,-0.23,-28.75,-28.91,0,*6A
1520784058.39,17756,13.38,72762.5,-0.25,-28.69,-28.91,0,*62
1520784059.62,17757,13.38,72762.0,-0.25,-28.69,-28.79,0,*65
1520784060.87,17758,13.38,72760.5,-0.25,-28.59,-28.79,0,*69
1520784062.11,17759,13.38,72760.3,-0.25,-28.59,-28.79,0,*68
1520784063.36,17760,13.38,72756.3,-0.25,-28.59,-28.79,0,*62
1520784064.59,17761,13.38,72762.0,-0.25,-28.53,-28.75,0,*65
1520784065.8,17762,13.38,72760.3,-0.25,-28.37,-28.69,0,*69
1520784067.03,17763,13.38,72758.8,-0.25,-28.37,-28.59,0,*6B
1520784068.26,17764,13.38,72756.8,-0.25,-28.37,-28.59,0,*6C
1520784069.49,17765,13.38,72756.3,-0.25,-28.37,-28.59,0,*6D
1520784070.75,17766,13.38,72756.8,-0.25,-28.25,-28.59,0,*6D
1520784072.01,17767,13.38,72754.5,-0.25,-28.43,-28.59,0,*6C
1520784073.23,17768,13.38,72756.5,-0.25,-28.43,-28.69,0,*60
1520784074.46,17769,13.38,72754.5,-0.25,-28.37,-28.59,0,*61
1520784075.71,17770,13.38,72754.3,-0.29,-28.47,-28.75,0,*6C
1520784076.97,17771,13.38,72756.8,-0.27,-28.47,-28.75,0,*63
1520784078.22,17772,13.38,72758.8,-0.27,-28.63,-28.85,0,*69
1520784079.47,17773,13.38,72756.0,-0.27,-28.75,-28.85,0,*6F
1520784080.71,17774,13.38,72756.3,-0.29,-28.59,-28.85,0,*68
1520784081.94,17775,13.38,72756.5,-0.29,-28.75,-28.85,0,*67
1520784083.19,17776,13.38,72758.0,-0.27,-28.75,-28.85,0,*6A
1520784084.44,17777,13.38,72762.3,-0.29,-28.63,-28.79,0,*61
1520784085.67,17778,13.38,72758.8,-0.29,-28.63,-28.85,0,*6D
1520784086.9,17779,13.38,72756.3,-0.29,-28.59,-28.85,0,*65
1520784088.16,17780,13.38,72758.3,-0.27,-28.59,-28.85,0,*6D
1520784089.39,17781,13.38,72760.3,-0.29,-28.79,-28.85,0,*60
1520784090.62,17782,13.38,72756.0,-0.29,-28.75,-28.85,0,*6F
1520784091.85,17783,13.38,72754.8,-0.29,-28.75,-28.85,0,*6E
1520784093.08,17784,13.38,72752.5,-0.29,-28.75,-28.85,0,*69
1520784094.36,17785,13.38,72752.5,-0.31,-28.63,-28.91,0,*63
1520784095.64,17786,13.38,72758.0,-0.31,-28.79,-28.91,0,*6B
1520784096.87,17787,13.38,72758.5,-0.33,-28.91,-29.07,0,*60
1520784098.12,17788,13.38,72756.0,-0.31,-28.91,-29.07,0,*6D
1520784099.37,17789,13.38,72754.5,-0.31,-28.85,-28.91,0,*67
1520784100.61,17790,13.38,72756.3,-0.31,-28.85,-28.85,0,*6A
1520784101.86,17791,13.38,72758.8,-0.33,-28.75,-28.91,0,*63
1520784103.09,17792,13.38,72754.0,-0.33,-28.91,-28.97,0,*6C
1520784104.29,17793,13.38,72752.0,-0.33,-28.85,-29.07,0,*60
1520784105.52,17794,13.38,72752.3,-0.33,-28.75,-28.97,0,*60
1520784106.72,17795,13.38,72754.8,-0.33,-28.69,-28.97,0,*6C
1520784107.97,17796,13.38,72758.0,-0.35,-28.59,-28.85,0,*69
1520784109.18,17797,13.38,72758.8,-0.33,-28.69,-28.85,0,*6D
1520784110.38,17798,13.38,72756.8,-0.33,-28.85,-28.97,0,*63
1520784111.64,17799,13.38,72762.3,-0.33,-28.75,-28.91,0,*6B
1520784112.89,17800,13.38,72756.5,-0.33,-28.59,-28.75,0,*60
1520784114.13,17801,13.38,72760.8,-0.37,-28.75,-28.79,0,*67
1520784115.36,17802,13.38,72762.0,-0.35,-28.69,-28.85,0,*68
1520784116.61,17803,13.38,72762.0,-0.35,-28.69,-28.75,0,*66
1520784117.84,17804,13.38,72752.8,-0.35,-28.53,-28.69,0,*65
1520784119.11,17805,13.38,72754.3,-0.35,-28.43,-28.59,0,*66
1520784120.35,17806,13.31,72752.3,-0.33,-28.37,-28.59,0,*60
1520784121.58,17807,13.38,72762.5,-0.35,-28.53,-28.69,0,*66
1520784122.83,17808,13.38,72760.0,-0.35,-28.59,-28.69,0,*63
1520784124.08,17809,13.38,72754.0,-0.37,-28.47,-28.63,0,*65
1520784125.33,17810,13.38,72754.5,-0.37,-28.47,-28.63,0,*6D
1520784126.56,17811,13.38,72754.8,-0.35,-28.37,-28.53,0,*6A
1520784127.84,17812,13.38,72754.0,-0.35,-28.43,-28.59,0,*60
1520784129.08,17813,13.38,72752.8,-0.37,-28.63,-28.75,0,*6F
1520784130.33,17814,13.38,72754.3,-0.37,-28.63,-28.79,0,*64
1520784131.59,17815,13.38,72752.8,-0.37,-28.59,-28.63,0,*67
1520784132.79,17816,13.31,72750.8,-0.37,-28.53,-28.69,0,*64
1520784134.04,17817,13.38,72756.8,-0.37,-28.63,-28.91,0,*61
1520784135.29,17818,13.38,72754.8,-0.37,-28.63,-28.79,0,*68
1520784136.54,17819,13.38,72756.3,-0.37,-28.59,-28.91,0,*66
1520784137.79,17820,13.38,72758.0,-0.37,-28.59,-28.79,0,*6A
1520784139.04,17821,13.38,72758.5,-0.37,-28.75,-28.91,0,*63
1520784140.3,17822,13.38,72760.0,-0.35,-28.59,-28.85,0,*69
1520784141.54,17823,13.38,72760.3,-0.37,-28.63,-28.79,0,*60
1520784142.79,17824,13.38,72758.8,-0.37,-28.63,-28.75,0,*6B
1520784144.04,17825,13.38,72758.3,-0.37,-28.63,-28.75,0,*6A
1520784145.31,17826,13.31,72756.0,-0.39,-28.59,-28.91,0,*64
1520784146.59,17827,13.31,72756.0,-0.39,-28.63,-28.79,0,*6A
1520784147.87,17828,13.38,72758.3,-0.39,-28.79,-28.91,0,*68
1520784149.14,17829,13.31,72756.0,-0.39,-28.75,-28.91,0,*65
1520784150.39,17830,13.31,72756.0,-0.43,-28.63,-28.97,0,*61
1520784151.66,17831,13.38,72762.3,-0.39,-28.63,-28.79,0,*6D
1520784152.89,17832,13.38,72758.0,-0.43,-28.85,-28.85,0,*68
1520784154.17,17833,13.38,72758.5,-0.39,-28.75,-28.91,0,*6E
1520784155.44,17834,13.38,72758.5,-0.39,-28.75,-28.79,0,*6F
1520784156.67,17835,13.38,72758.8,-0.43,-28.69,-28.85,0,*6D
1520784157.89,17836,13.38,72762.8,-0.43,-28.69,-28.97,0,*6D
1520784159.16,17837,13.31,72754.5,-0.43,-28.63,-28.79,0,*66
1520784160.41,17838,13.38,72756.3,-0.43,-28.63,-28.69,0,*68
1520784161.68,17839,13.31,72754.3,-0.43,-28.63,-28.79,0,*68
1520784162.91,17840,13.38,72756.5,-0.43,-28.69,-28.85,0,*6F
1520784164.11,17841,13.31,72756.3,-0.45,-28.69,-28.85,0,*68
1520784165.36,17842,13.38,72760.3,-0.45,-28.75,-28.91,0,*63
1520784166.59,17843,13.31,72760.0,-0.45,-28.69,-28.91,0,*6F
1520784167.82,17844,13.38,72758.8,-0.45,-28.85,-28.91,0,*6A
1520784169.09,17845,13.31,72758.3,-0.47,-28.75,-29.01,0,*6E
1520784170.31,17846,13.38,72756.8,-0.47,-28.69,-29.07,0,*66
1520784171.53,17847,13.31,72756.0,-0.45,-28.75,-28.85,0,*63
1520784172.78,17848,13.38,72756.5,-0.47,-28.69,-28.75,0,*6C
1520784174.02,17849,13.38,72758.8,-0.47,-28.69,-28.75,0,*6D
1520784175.29,17850,13.31,72756.3,-0.47,-28.59,-28.75,0,*66
1520784176.53,17851,13.38,72758.0,-0.47,-28.69,-28.75,0,*64
1520784177.79,17852,13.31,72758.8,-0.47,-28.53,-28.59,0,*60
1520784179.06,17853,13.38,72756.8,-0.47,-28.59,-28.75,0,*65
1520784180.31,17854,13.38,72758.5,-0.47,-28.53,-28.59,0,*66
1520784181.56,17855,13.38,72762.0,-0.49,-28.63,-28.75,0,*64
1520784182.81,17856,13.38,72758.8,-0.49,-28.63,-28.79,0,*6B
1520784184.06,17857,13.31,72758.0,-0.49,-28.63,-28.79,0,*6A
1520784185.29,17858,13.38,72756.8,-0.49,-28.75,-28.97,0,*62
1520784186.52,17859,13.38,72756.3,-0.49,-28.79,-28.97,0,*6F
1520784187.74,17860,13.38,72756.8,-0.49,-28.75,-28.97,0,*69
1520784188.99,17861,13.31,72756.5,-0.49,-28.75,-28.79,0,*68
1520784190.24,17862,13.31,72754.0,-0.49,-28.75,-28.91,0,*6D
1520784191.49,17863,13.31,72758.5,-0.49,-28.63,-28.79,0,*6D
1520784192.77,17864,13.38,72758.3,-0.51,-28.63,-28.79,0,*63
1520784194.05,17865,13.38,72756.8,-0.51,-28.63,-28.91,0,*64
1520784195.31,17866,13.31,72758.5,-0.49,-28.59,-28.63,0,*6A
1520784196.56,17867,13.31,72758.8,-0.49,-28.63,-28.79,0,*69
1520784197.83,17868,13.31,72758.0,-0.51,-28.75,-28.91,0,*6E
1520784199.08,17869,13.38,72756.0,-0.51,-28.75,-28.97,0,*69
1520784200.35,17870,13.38,72758.5,-0.51,-28.75,-28.79,0,*61
1520784201.57,17871,13.38,72758.5,-0.53,-28.79,-28.97,0,*6E
1520784202.8,17872,13.38,72758.8,-0.53,-28.79,-28.97,0,*6D
1520784204.02,17873,13.38,72756.8,-0.53,-28.79,-28.85,0,*6F
1520784205.25,17874,13.31,72754.0,-0.53,-28.79,-28.97,0,*6B
1520784206.49,17875,13.31,72758.0,-0.55,-28.79,-28.97,0,*6C
1520784207.71,17876,13.38,72758.0,-0.53,-28.79,-28.97,0,*69
1520784208.97,17877,13.31,72756.3,-0.55,-28.79,-28.85,0,*6D
1520784210.25,17878,13.31,72756.3,-0.51,-28.47,-28.63,0,*63
1520784211.49,17879,13.31,72756.5,-0.55,-28.47,-28.69,0,*6C
1520784212.73,17880,13.31,72754.8,-0.55,-28.53,-28.79,0,*6E
1520784213.98,17881,13.31,72756.3,-0.53,-28.63,-28.79,0,*6A
1520784215.23,17882,13.31,72754.8,-0.55,-28.63,-28.69,0,*6E
1520784216.47,17883,13.31,72758.3,-0.53,-28.63,-28.79,0,*68
1520784217.72,17884,13.38,72762.5,-0.55,-28.63,-28.69,0,*68
1520784218.99,17885,13.38,72758.0,-0.55,-28.63,-28.79,0,*68
1520784220.26,17886,13.31,72758.0,-0.55,-28.63,-28.79,0,*6B
1520784221.53,17887,13.38,72758.3,-0.55,-28.63,-28.79,0,*6A
1520784222.78,17888,13.38,72758.5,-0.55,-28.47,-28.69,0,*62
1520784224.0,17889,13.31,72756.5,-0.55,-28.53,-28.69,0,*66
1520784225.23,17890,13.38,72756.8,-0.55,-28.53,-28.69,0,*6E
1520784226.48,17891,13.31,72756.5,-0.55,-28.63,-28.85,0,*6E
1520784227.7,17892,13.31,72754.0,-0.55,-28.69,-28.97,0,*64
1520784228.92,17893,13.38,72758.5,-0.55,-28.69,-28.97,0,*65
1520784230.14,17894,13.31,72756.0,-0.55,-28.69,-28.97,0,*62
1520784231.39,17895,13.38,72758.0,-0.55,-28.69,-29.01,0,*6D
1520784232.64,17896,13.31,72756.8,-0.59,-28.69,-28.91,0,*6A
1520784233.89,17897,13.31,72754.5,-0.57,-28.75,-28.91,0,*68
1520784235.14,17898,13.31,72754.0,-0.57,-28.75,-29.01,0,*6F
1520784236.37,17899,13.31,72752.5,-0.57,-28.85,-29.01,0,*61
1520784237.57,17900,13.31,72752.3,-0.57,-28.69,-28.85,0,*6F
1520784238.82,17901,13.31,72758.0,-0.57,-28.75,-29.01,0,*6E
1520784240.08,17902,13.31,72754.3,-0.59,-28.85,-28.91,0,*64
1520784241.33,17903,13.31,72754.8,-0.57,-28.75,-28.91,0,*64
1520784242.58,17904,13.31,72754.8,-0.57,-28.91,-29.17,0,*66
1520784243.83,17905,13.38,72758.5,-0.59,-28.91,-29.07,0,*68
1520784245.09,17906,13.31,72754.8,-0.59,-28.85,-29.01,0,*68
1520784246.35,17907,13.31,72756.8,-0.59,-28.85,-29.01,0,*69
1520784247.57,17908,13.31,72756.5,-0.59,-28.85,-29.07,0,*60
1520784248.8,17909,13.31,72758.3,-0.59,-28.85,-29.07,0,*61
1520784250.06,17910,13.31,72754.3,-0.59,-28.85,-28.91,0,*67
1520784251.31,17911,13.38,72758.3,-0.63,-28.79,-28.97,0,*6A
1520784252.56,17912,13.31,72758.5,-0.63,-28.79,-29.07,0,*61
1520784253.78,17913,13.31,72756.5,-0.61,-28.79,-29.07,0,*62
1520784255.0,17914,13.31,72754.5,-0.61,-28.91,-29.07,0,*63
1520784256.25,17915,13.31,72754.8,-0.61,-28.79,-28.91,0,*6A
1520784257.53,17916,13.31,72758.0,-0.63,-28.75,-28.91,0,*67
1520784258.75,17917,13.31,72756.3,-0.61,-28.79,-28.97,0,*6E
1520784260.0,17918,13.38,72756.3,-0.63,-28.79,-28.97,0,*63
1520784261.25,17919,13.31,72758.5,-0.63,-28.79,-28.97,0,*62
1520784262.5,17920,13.31,72758.5,-0.63,-28.79,-28.97,0,*68
1520784263.75,17921,13.31,72758.5,-0.63,-28.79,-28.97,0,*69
1520784264.97,17922,13.31,72756.8,-0.61,-28.91,-29.07,0,*66
1520784266.25,17923,13.31,72754.5,-0.63,-28.91,-29.13,0,*60
1520784267.5,17924,13.31,72758.8,-0.63,-28.79,-28.97,0,*6C
1520784268.77,17925,13.31,72754.0,-0.63,-28.75,-28.91,0,*67
1520784270.05,17926,13.31,72758.0,-0.63,-28.63,-28.75,0,*69
1520784271.32,17927,13.31,72756.8,-0.63,-28.79,-28.91,0,*69
1520784272.55,17928,13.31,72758.0,-0.67,-28.85,-28.97,0,*67
1520784273.78,17929,13.31,72758.0,-0.67,-28.85,-28.97,0,*66
1520784275.01,17930,13.31,72756.5,-0.67,-28.85,-28.97,0,*6E
1520784276.26,17931,13.31,72754.3,-0.67,-28.85,-29.01,0,*61
1520784277.52,17932,13.31,72756.5,-0.67,-28.85,-29.01,0,*62
1520784278.77,17933,13.31,72758.3,-0.67,-28.85,-29.01,0,*63
1520784280.03,17934,13.31,72754.3,-0.69,-28.91,-28.91,0,*67
1520784281.25,17935,13.31,72758.8,-0.69,-28.85,-29.01,0,*6B
1520784282.51,17936,13.31,72758.0,-0.69,-28.91,-29.01,0,*6D
1520784283.73,17937,13.38,72758.8,-0.69,-28.79,-28.97,0,*64
1520784284.98,17938,13.31,72756.8,-0.69,-28.91,-29.17,0,*64
1520784286.24,17939,13.31,72758.5,-0.69,-28.91,-29.01,0,*62
1520784287.46,17940,13.31,72752.3,-0.69,-28.85,-29.17,0,*6E
1520784288.68,17941,13.31,72756.8,-0.69,-28.91,-29.07,0,*6B
1520784289.91,17942,13.31,72754.3,-0.71,-28.85,-29.07,0,*64
1520784291.16,17943,13.31,72754.0,-0.69,-28.91,-29.01,0,*6F
1520784292.36,17944,13.31,72762.0,-0.69,-28.85,-29.07,0,*6B
1520784293.58,17945,13.31,72758.5,-0.69,-28.91,-29.07,0,*6F
1520784294.85,17946,13.31,72756.0,-0.71,-28.91,-29.13,0,*60
1520784296.04,17947,13.31,72756.3,-0.73,-28.97,-29.07,0,*60
1520784297.29,17948,13.31,72760.8,-0.71,-28.91,-29.07,0,*6B
1520784298.51,17949,13.31,72760.3,-0.71,-28.85,-29.07,0,*6F
1520784299.76,17950,13.31,72760.0,-0.73,-28.91,-29.13,0,*65
1520784301.01,17951,13.31,72758.5,-0.73,-28.79,-28.91,0,*69
1520784302.26,17952,13.31,72756.8,-0.71,-28.75,-28.85,0,*61
1520784303.45,17953,13.31,72756.3,-0.73,-28.97,-29.07,0,*65
1520784304.64,17954,13.31,72754.8,-0.73,-28.97,-28.97,0,*6A
1520784305.83,17955,13.31,72752.0,-0.73,-28.97,-29.07,0,*63
1520784307.06,17956,13.31,72758.0,-0.75,-28.97,-28.97,0,*6E
1520784308.31,17957,13.31,72754.3,-0.75,-28.91,-28.97,0,*69
1520784309.56,17958,13.31,72754.3,-0.75,-28.79,-28.97,0,*60
1520784310.81,17959,13.31,72754.0,-0.75,-28.91,-28.97,0,*67
1520784312.1,17960,13.31,72754.0,-0.75,-28.91,-28.91,0,*6B
1520784313.3,17961,13.31,72754.3,-0.77,-28.85,-28.97,0,*6B
1520784314.57,17962,13.31,72752.5,-0.75,-28.75,-28.91,0,*63
1520784315.77,17963,13.31,72754.5,-0.77,-28.97,-28.97,0,*6A
1520784316.99,17964,13.31,72748.5,-0.75,-28.97,-28.97,0,*6F
1520784318.21,17965,13.31,72750.3,-0.77,-28.97,-29.13,0,*61
1520784319.43,17966,13.31,72752.8,-0.77,-28.97,-29.13,0,*62
1520784320.67,17967,13.31,72756.0,-0.77,-29.01,-29.13,0,*6D
1520784321.89,17968,13.31,72756.8,-0.77,-28.97,-29.13,0,*6C
1520784323.14,17969,13.31,72758.3,-0.77,-29.01,-29.13,0,*63
1520784324.41,17970,13.31,72758.8,-0.79,-29.01,-29.13,0,*65
1520784325.65,17971,13.31,72758.8,-0.79,-28.97,-29.13,0,*6A
1520784326.93,17972,13.31,72758.3,-0.79,-29.01,-29.01,0,*64
1520784328.2,17973,13.31,72752.8,-0.79,-29.01,-29.13,0,*66
1520784329.46,17974,13.31,72752.8,-0.79,-28.85,-29.01,0,*6F
1520784330.68,17975,13.31,72756.0,-0.81,-29.07,-29.17,0,*65
1520784331.91,17976,13.31,72756.3,-0.81,-29.01,-29.07,0,*61
1520784333.14,17977,13.31,72756.3,-0.81,-28.85,-28.91,0,*63
1520784334.39,17978,13.31,72758.8,-0.79,-28.79,-28.97,0,*6E
1520784335.62,17979,13.31,72760.3,-0.81,-29.01,-29.07,0,*6E
1520784336.85,17980,13.31,72758.3,-0.79,-28.85,-28.97,0,*6A
1520784338.05,17981,13.31,72760.5,-0.81,-28.85,-29.07,0,*64
1520784339.31,17982,13.31,72756.5,-0.81,-28.91,-29.01,0,*64
1520784340.53,17983,13.31,72756.0,-0.81,-28.91,-29.07,0,*63
1520784341.8,17984,13.31,72760.8,-0.85,-28.91,-29.13,0,*65
1520784343.03,17985,13.31,72758.0,-0.81,-28.91,-29.07,0,*65
1520784344.26,17986,13.31,72758.3,-0.81,-28.85,-28.91,0,*6D
1520784345.55,17987,13.31,72756.5,-0.83,-28.91,-29.01,0,*63
1520784346.8,17988,13.31,72760.8,-0.85,-28.91,-28.97,0,*64
1520784348.05,17989,13.31,72760.3,-0.83,-28.85,-29.01,0,*68
1520784349.31,17990,13.31,72754.8,-0.83,-28.85,-29.01,0,*60
1520784350.56,17991,13.31,72758.5,-0.85,-28.79,-28.97,0,*6A
1520784351.8,17992,13.31,72760.3,-0.85,-28.91,-29.07,0,*67
1520784353.09,17993,13.31,72760.8,-0.83,-28.91,-29.01,0,*66
1520784354.33,17994,13.31,72754.8,-0.85,-28.91,-29.07,0,*61
1520784355.58,17995,13.31,72758.0,-0.85,-28.91,-29.07,0,*60
1520784356.79,17996,13.31,72758.8,-0.85,-28.97,-29.07,0,*65
1520784358.03,17997,13.31,72756.0,-0.85,-28.97,-29.13,0,*61
1520784359.29,17998,13.31,72760.3,-0.83,-28.91,-29.07,0,*6B
1520784360.56,17999,13.31,72758.8,-0.89,-29.01,-29.17,0,*69
1520784361.8,18000,13.31,72758.3,-0.85,-28.97,-29.13,0,*69
1520784363.04,18001,13.31,72758.3,-0.89,-28.97,-29.13,0,*64
1520784364.31,18002,13.31,72756.8,-0.89,-28.79,-29.01,0,*64
1520784365.55,18003,13.31,72760.8,-0.89,-28.85,-29.13,0,*65
1520784366.76,18004,13.31,72758.0,-0.91,-28.85,-28.85,0,*65
1520784368.01,18005,13.31,72756.3,-0.91,-28.79,-29.01,0,*6A
1520784369.24,18006,13.31,72756.3,-0.91,-28.85,-29.13,0,*69
1520784370.47,18007,13.31,72756.0,-0.91,-28.79,-28.85,0,*65
1520784371.74,18008,13.31,72756.5,-0.85,-28.63,-28.75,0,*6B
1520784372.96,18009,13.31,72754.3,-0.91,-28.69,-28.79,0,*69
1520784374.16,18010,13.31,72752.8,-0.91,-28.85,-28.97,0,*63
1520784375.38,18011,13.31,72754.3,-0.89,-28.85,-28.97,0,*6B
1520784376.63,18012,13.31,72754.5,-0.89,-28.85,-29.01,0,*66
1520784377.88,18013,13.31,72752.0,-0.93,-28.91,-29.07,0,*6F
1520784379.11,18014,13.31,72754.8,-0.91,-28.79,-28.85,0,*67
1520784380.32,18015,13.31,72754.3,-0.91,-28.69,-28.85,0,*67
1520784381.57,18016,13.31,72754.8,-0.93,-28.85,-29.01,0,*69
1520784382.82,18017,13.31,72752.8,-0.93,-28.91,-29.07,0,*6B
1520784384.1,18018,13.31,72752.0,-0.93,-29.01,-29.01,0,*6A
1520784385.34,18019,13.31,72754.8,-0.93,-29.01,-29.07,0,*6D
1520784386.57,18020,13.31,72758.3,-0.91,-28.79,-28.97,0,*63
1520784387.82,18021,13.31,72756.3,-0.95,-28.91,-29.01,0,*6E
1520784389.06,18022,13.31,72758.0,-0.95,-28.85,-28.91,0,*60
1520784390.29,18023,13.31,72756.8,-0.95,-28.85,-29.01,0,*69
1520784391.54,18024,13.31,72758.0,-0.95,-28.91,-28.91,0,*63
1520784392.8,18025,13.31,72754.8,-0.93,-28.85,-29.01,0,*69
1520784394.02,18026,13.31,72756.0,-0.95,-28.91,-29.07,0,*6F
1520784395.25,18027,13.31,72754.5,-0.95,-28.91,-29.07,0,*6E
1520784396.5,18028,13.31,72756.0,-0.95,-28.91,-29.17,0,*60
1520784397.76,18029,13.31,72758.5,-0.95,-28.91,-29.01,0,*66
1520784398.98,18030,13.31,72754.0,-0.97,-28.97,-29.07,0,*6C
1520784400.24,18031,13.31,72754.0,-0.95,-28.91,-28.91,0,*67
1520784401.49,18032,13.31,72754.0,-0.97,-28.91,-28.97,0,*60
1520784402.75,18033,13.31,72756.5,-0.95,-28.91,-28.91,0,*65
1520784403.98,18034,13.31,72758.0,-0.95,-28.85,-28.91,0,*67
1520784405.23,18035,13.31,72756.5,-0.97,-28.91,-29.07,0,*6F
1520784406.45,18036,13.31,72754.0,-0.97,-28.97,-28.97,0,*62
1520784407.67,18037,13.31,72756.5,-0.99,-28.97,-29.13,0,*60
1520784408.93,18038,13.31,72754.8,-0.99,-28.91,-29.01,0,*6A
1520784410.15,18039,13.31,72758.3,-0.99,-28.97,-29.01,0,*6D
1520784411.38,18040,13.31,72756.5,-0.99,-28.97,-29.01,0,*63
1520784412.61,18041,13.31,72754.3,-0.99,-28.85,-29.01,0,*61
1520784413.84,18042,13.31,72758.5,-0.99,-28.85,-29.01,0,*62
1520784415.07,18043,13.31,72754.8,-0.99,-28.97,-29.01,0,*60
1520784416.32,18044,13.31,72756.5,-0.97,-28.91,-28.97,0,*61
1520784417.57,18045,13.31,72758.0,-0.99,-29.01,-29.13,0,*6B
1520784418.8,18046,13.31,72756.8,-1.03,-28.97,-29.01,0,*57
1520784420.05,18047,13.31,72758.3,-1.01,-28.97,-29.01,0,*54
1520784421.31,18048,13.31,72758.5,-1.03,-29.01,-29.17,0,*50
1520784422.58,18049,13.31,72758.0,-1.01,-28.79,-28.85,0,*57
1520784423.79,18050,13.31,72758.0,-1.03,-28.69,-28.85,0,*5C
1520784425.06,18051,13.31,72758.5,-1.01,-28.75,-28.79,0,*51
1520784426.34,18052,13.31,72756.5,-1.01,-28.63,-28.75,0,*59
1520784427.62,18053,13.31,72758.0,-1.01,-28.75,-28.79,0,*53
1520784428.88,18054,13.31,72758.3,-1.01,-28.79,-28.97,0,*58
1520784430.14,18055,13.31,72758.8,-1.03,-28.91,-28.91,0,*5B
1520784431.41,18056,13.31,72758.3,-1.01,-28.63,-28.85,0,*52
1520784432.67,18057,13.31,72758.5,-1.03,-28.63,-28.91,0,*54
1520784433.9,18058,13.31,72758.3,-1.03,-28.79,-28.85,0,*55
1520784435.16,18059,13.31,72752.8,-1.01,-28.79,-28.97,0,*55
1520784436.42,18060,13.31,72758.3,-1.01,-28.75,-28.85,0,*50
1520784437.63,18061,13.31,72754.0,-1.03,-28.69,-28.85,0,*5E
1520784438.89,18062,13.31,72758.3,-1.01,-28.75,-28.85,0,*52
1520784440.13,18063,13.31,72760.0,-1.03,-28.69,-28.91,0,*59
1520784441.39,18064,13.31,72756.3,-1.03,-28.79,-29.01,0,*57
1520784442.65,18065,13.31,72756.8,-1.03,-28.79,-28.91,0,*5E
1520784443.88,18066,13.31,72754.5,-1.03,-28.69,-28.91,0,*5C
1520784445.14,18067,13.31,72758.0,-1.03,-28.79,-28.91,0,*5C
1520784446.42,18068,13.31,72760.3,-1.05,-28.79,-28.91,0,*55
1520784447.66,18069,13.31,72758.3,-1.03,-28.85,-29.01,0,*59
1520784448.92,18070,13.31,72762.3,-1.03,-28.91,-28.91,0,*5C
1520784450.19,18071,13.31,72758.0,-1.05,-28.85,-28.91,0,*5E
1520784451.44,18072,13.31,72756.3,-1.05,-28.85,-29.01,0,*55
1520784452.71,18073,13.31,72760.8,-1.05,-28.85,-28.91,0,*5C
1520784453.97,18074,13.31,72756.5,-1.05,-28.85,-29.01,0,*53
1520784455.2,18075,13.31,72760.0,-1.03,-28.85,-28.91,0,*5C
1520784456.46,18076,13.31,72762.5,-1.05,-28.85,-29.01,0,*51
1520784457.72,18077,13.31,72758.8,-1.05,-28.85,-28.91,0,*58
1520784458.93,18078,13.31,72758.8,-1.07,-28.85,-29.07,0,*5B
1520784460.19,18079,13.31,72762.3,-1.05,-28.85,-29.01,0,*5E
1520784461.45,18080,13.31,72760.5,-1.05,-28.85,-28.91,0,*50
1520784462.69,18081,13.31,72758.8,-1.07,-28.91,-28.97,0,*50
1520784463.95,18082,13.31,72758.0,-1.07,-28.75,-28.91,0,*5F
1520784465.21,18083,13.31,72756.0,-1.05,-28.69,-28.91,0,*51
1520784466.47,18084,13.31,72760.0,-1.07,-28.75,-28.91,0,*59
1520784467.73,18085,13.31,72756.5,-1.07,-28.75,-28.91,0,*58
1520784468.95,18086,13.31,72760.8,-1.07,-28.69,-28.85,0,*53
1520784470.18,18087,13.31,72760.8,-1.07,-28.69,-28.91,0,*57
1520784471.42,18088,13.31,72762.5,-1.07,-28.91,-29.07,0,*51
1520784472.66,18089,13.31,72760.0,-1.07,-28.91,-28.97,0,*58
1520784473.89,18090,13.31,72762.3,-1.07,-28.91,-29.07,0,*58
1520784475.1,18091,13.31,72764.3,-1.07,-28.85,-28.97,0,*54
1520784476.31,18092,13.31,72760.8,-1.11,-28.85,-28.97,0,*50
1520784477.54,18093,13.31,72760.8,-1.11,-28.75,-28.97,0,*5E
1520784478.75,18094,13.31,72762.3,-1.11,-28.85,-28.97,0,*56
1520784480.01,18095,13.31,72760.5,-1.13,-28.79,-28.97,0,*56
1520784481.25,18096,13.31,72758.8,-1.11,-28.85,-28.91,0,*52
1520784482.51,18097,13.31,72762.3,-1.13,-28.85,-29.01,0,*59
1520784483.77,18098,13.31,72762.3,-1.13,-28.79,-28.97,0,*5B
1520784485.04,18099,13.31,72756.5,-1.13,-28.47,-28.75,0,*5B
1520784486.29,18100,13.31,72758.8,-1.11,-28.59,-28.75,0,*57
1520784487.53,18101,13.31,72758.8,-1.11,-28.79,-28.85,0,*5B
1520784488.79,18102,13.31,72762.3,-1.11,-28.75,-28.91,0,*51
1520784490.08,18103,13.31,72756.0,-1.13,-28.79,-29.01,0,*56
1520784491.36,18104,13.31,72758.0,-1.13,-28.91,-29.01,0,*57
1520784492.65,18105,13.31,72756.0,-1.13,-28.79,-29.01,0,*50
1520784493.93,18106,13.31,72758.8,-1.13,-28.91,-29.13,0,*56
1520784495.22,18107,13.31,72758.5,-1.13,-28.79,-29.01,0,*52
1520784496.5,18108,13.31,72758.0,-1.13,-28.79,-29.01,0,*5D
1520784497.76,18109,13.31,72756.5,-1.13,-28.79,-28.97,0,*52